Weather History for Dublin, GA

Change the Weather History Date:

Tuesday, June 4, 2013

  Actual Average Record
Temperature  
Mean Temperature 82 °F -  
Max Temperature 91 °F 90 °F 102 °F (1985)
Min Temperature 73 °F 63 °F 54 °F (1972)
Cooling Degree Days 17    
Growing Degree Days 32 (Base 50)    
Moisture  
Dew Point 72 °F    
Average Humidity 75    
Maximum Humidity 100    
Minimum Humidity 41    
Precipitation  
Precipitation 0.00 in - - ()
Sea Level Pressure  
Sea Level Pressure 29.98 in    
Wind  
Wind Speed 2 mph (ESE)    
Max Wind Speed 10 mph    
Max Gust Speed 20 mph    
Visibility 9 miles    
Events Thunderstorm    
Averages and records for this station are not official NWS values.
T = Trace of Precipitation, MM = Missing Value Source: NWS Daily Summary

Daily Weather History Graph

Daily Weather History Graph

Search for Another Location

Airport:

Trip Planner

Search our weather history database for the weather conditions in past years. The results will help you decide how hot, cold, wet, or windy it might be!

Date:

Astronomy

Jun. 04, 2013 Rise Set
Actual Time 6:24 AM EDT 8:36 PM EDT
Civil Twilight 5:56 AM EDT 9:04 PM EDT
Nautical Twilight 5:21 AM EDT 9:39 PM EDT
Astronomical Twilight 4:44 AM EDT 10:16 PM EDT
Moon 3:43 AM EDT (6/4) 5:13 PM EDT (6/4)
Length of Visible Light 15h 08m
Length of Day
14h 11m
Waning Crescent, 14% of the Moon is Illuminated
Jun 4
Waning Crescent
Jun 8
New
Jun 16
First Quarter
Jun 23
Full
Jun 30
Last Quarter

Hourly Weather History & Observations

Time (EDT) Temp. Heat Index Dew Point Humidity Pressure Visibility Wind Dir Wind Speed Gust Speed Precip Events Conditions
12:15 AM - - - N/A% 29.97 in 10.0 mi Calm Calm - N/A   Clear
12:35 AM - - - N/A% 29.97 in 10.0 mi Calm Calm - N/A   Scattered Clouds
12:55 AM - - - N/A% 29.97 in 7.0 mi Calm Calm - N/A   Mostly Cloudy
1:15 AM - - - N/A% 29.97 in 7.0 mi Calm Calm - N/A   Scattered Clouds
1:35 AM - - - N/A% 29.97 in 10.0 mi Calm Calm - N/A   Clear
1:55 AM - - - N/A% 29.96 in 10.0 mi Calm Calm - N/A   Clear
2:15 AM - - - N/A% 29.96 in 10.0 mi Calm Calm - N/A   Mostly Cloudy
2:35 AM - - - N/A% 29.96 in 7.0 mi Calm Calm - N/A   Scattered Clouds
2:55 AM 73.4 °F - 73.4 °F 100% 29.95 in 10.0 mi Calm Calm - N/A   Clear
3:15 AM 73.4 °F - 73.4 °F 100% 29.95 in 10.0 mi SSE 5.8 mph - N/A   Scattered Clouds
3:35 AM - - - N/A% 29.94 in 10.0 mi Calm Calm - N/A   Clear
3:55 AM - - - N/A% 29.94 in 10.0 mi Calm Calm - N/A   Clear
4:15 AM - - - N/A% 29.95 in 7.0 mi Calm Calm - N/A   Clear
4:35 AM - - - N/A% 29.95 in 5.0 mi Calm Calm - N/A   Haze
4:55 AM - - - N/A% 29.95 in 7.0 mi NNW 3.5 mph - N/A   Clear
5:15 AM - - - N/A% 29.96 in 7.0 mi Calm Calm - N/A   Clear
5:35 AM - - - N/A% 29.96 in 7.0 mi Calm Calm - N/A   Clear
5:55 AM - - - N/A% 29.97 in 5.0 mi Calm Calm - N/A   Haze
6:15 AM - - - N/A% 29.97 in 5.0 mi Calm Calm - N/A   Haze
6:35 AM - - - N/A% 29.98 in 5.0 mi Calm Calm - N/A   Haze
6:55 AM - - - N/A% 29.99 in 7.0 mi Calm Calm - N/A   Scattered Clouds
7:15 AM - - - N/A% 29.99 in 7.0 mi Calm Calm - N/A   Scattered Clouds
7:35 AM - - - N/A% 29.99 in 10.0 mi Calm Calm - N/A   Mostly Cloudy
7:55 AM 75.2 °F - 75.2 °F 100% 30.00 in 10.0 mi Calm Calm - N/A   Scattered Clouds
8:15 AM 77.0 °F - 77.0 °F 100% 30.00 in 10.0 mi Calm Calm - N/A   Clear
8:35 AM 77.0 °F - 77.0 °F 100% 30.00 in 10.0 mi NNW 3.5 mph - N/A   Scattered Clouds
8:55 AM 78.8 °F - 78.8 °F 100% 30.01 in 10.0 mi Calm Calm - N/A   Mostly Cloudy
9:15 AM 80.6 °F 89.3 °F 80.6 °F 100% 30.01 in 10.0 mi Calm Calm - N/A   Scattered Clouds
9:35 AM 80.6 °F 89.3 °F 80.6 °F 100% 30.01 in 10.0 mi Calm Calm - N/A   Clear
9:55 AM 82.4 °F 94.0 °F 80.6 °F 94% 30.01 in 10.0 mi Calm Calm - N/A   Clear
10:15 AM 82.4 °F 92.4 °F 78.8 °F 89% 30.01 in 10.0 mi NW 3.5 mph - N/A   Scattered Clouds
10:35 AM 82.4 °F 90.9 °F 77.0 °F 84% 30.01 in 10.0 mi NW 3.5 mph - N/A   Clear
10:55 AM 82.4 °F 88.2 °F 73.4 °F 74% 30.01 in 10.0 mi Calm Calm - N/A   Clear
11:15 AM 84.2 °F 87.3 °F 68.0 °F 58% 30.01 in 10.0 mi Calm Calm - N/A   Scattered Clouds
11:35 AM 86.0 °F 90.4 °F 69.8 °F 58% 30.01 in 10.0 mi Calm Calm - N/A   Scattered Clouds
11:55 AM 86.0 °F 90.4 °F 69.8 °F 58% 30.01 in 10.0 mi Calm Calm - N/A   Mostly Cloudy
12:15 PM 86.0 °F 90.4 °F 69.8 °F 58% 30.01 in 10.0 mi WSW 3.5 mph - N/A   Mostly Cloudy
12:35 PM 86.0 °F 89.4 °F 68.0 °F 55% 30.01 in 10.0 mi West 3.5 mph - N/A   Scattered Clouds
12:55 PM 87.8 °F 91.4 °F 68.0 °F 52% 30.00 in 10.0 mi Calm Calm - N/A   Scattered Clouds
1:15 PM 87.8 °F 91.4 °F 68.0 °F 52% 29.99 in 10.0 mi Calm Calm - N/A   Scattered Clouds
1:35 PM 89.6 °F 92.2 °F 66.2 °F 46% 29.98 in 10.0 mi SSE 3.5 mph - N/A   Mostly Cloudy
1:55 PM 89.6 °F 92.2 °F 66.2 °F 46% 29.98 in 10.0 mi WNW 5.8 mph - N/A   Scattered Clouds
2:15 PM 89.6 °F 92.2 °F 66.2 °F 46% 29.97 in 10.0 mi SSW 4.6 mph - N/A   Scattered Clouds
2:35 PM 89.6 °F 91.1 °F 64.4 °F 43% 29.97 in 10.0 mi NNW 4.6 mph - N/A   Scattered Clouds
2:55 PM 89.6 °F 93.4 °F 68.0 °F 49% 29.97 in 10.0 mi Calm Calm - N/A   Mostly Cloudy
3:15 PM 91.4 °F 93.2 °F 64.4 °F 41% 29.96 in 10.0 mi SW 3.5 mph - N/A   Mostly Cloudy
3:35 PM 91.4 °F 93.2 °F 64.4 °F 41% 29.95 in 10.0 mi NW 3.5 mph - N/A   Scattered Clouds
3:55 PM 89.6 °F 92.2 °F 66.2 °F 46% 29.95 in 10.0 mi North 4.6 mph - N/A   Mostly Cloudy
4:15 PM 89.6 °F 93.4 °F 68.0 °F 49% 29.95 in 10.0 mi North 6.9 mph - N/A Thunderstorm Overcast
4:35 PM 86.0 °F 90.4 °F 69.8 °F 58% 29.96 in 10.0 mi NNE 8.1 mph 19.6 mph N/A Thunderstorm Overcast
4:55 PM 86.0 °F 89.4 °F 68.0 °F 55% 29.95 in 10.0 mi NNE 9.2 mph - N/A   Overcast
5:15 PM 82.4 °F 85.4 °F 68.0 °F 62% 29.95 in 10.0 mi NNE 9.2 mph - N/A   Mostly Cloudy
5:35 PM 82.4 °F 87.2 °F 71.6 °F 70% 29.96 in 10.0 mi ENE 9.2 mph - N/A Thunderstorm Mostly Cloudy
5:55 PM 87.8 °F 92.6 °F 69.8 °F 55% 29.96 in 10.0 mi ENE 10.4 mph - N/A   Mostly Cloudy
6:15 PM 86.0 °F 91.8 °F 71.6 °F 62% 29.96 in 10.0 mi East 6.9 mph - N/A   Scattered Clouds
6:35 PM 82.4 °F 87.2 °F 71.6 °F 70% 29.96 in 10.0 mi East 6.9 mph - N/A   Clear
6:55 PM 82.4 °F 86.3 °F 69.8 °F 66% 29.97 in 10.0 mi SE 8.1 mph - N/A Thunderstorm Clear
7:15 PM 80.6 °F 83.2 °F 68.0 °F 65% 29.99 in 10.0 mi SE 8.1 mph - N/A   Mostly Cloudy
7:35 PM 80.6 °F 83.9 °F 69.8 °F 70% 29.99 in 10.0 mi ESE 4.6 mph - N/A   Scattered Clouds
7:55 PM 80.6 °F 83.9 °F 69.8 °F 70% 29.99 in 10.0 mi South 8.1 mph - N/A   Clear
8:15 PM 78.8 °F - 77.0 °F 94% 30.00 in 10.0 mi SSE 6.9 mph - N/A   Clear
8:35 PM 78.8 °F - 78.8 °F 100% 30.01 in 10.0 mi SE 4.6 mph - N/A   Mostly Cloudy
8:55 PM 77.0 °F - 77.0 °F 100% 30.01 in 10.0 mi SE 9.2 mph - N/A   Mostly Cloudy
9:15 PM 77.0 °F - 77.0 °F 100% 30.02 in 10.0 mi SE 6.9 mph - N/A   Mostly Cloudy
9:35 PM 77.0 °F - 77.0 °F 100% 30.02 in 10.0 mi SE 9.2 mph - N/A   Overcast
9:55 PM 77.0 °F - 77.0 °F 100% 30.03 in 10.0 mi ESE 5.8 mph - N/A   Mostly Cloudy
10:15 PM 77.0 °F - 77.0 °F 100% 30.02 in 10.0 mi SE 4.6 mph - N/A   Scattered Clouds
10:35 PM 75.2 °F - 75.2 °F 100% 30.03 in 10.0 mi ESE 5.8 mph - N/A   Scattered Clouds
10:55 PM 75.2 °F - 75.2 °F 100% 30.03 in 10.0 mi SE 4.6 mph - N/A   Clear
11:15 PM 73.4 °F - 73.4 °F 100% 30.03 in 10.0 mi South 4.6 mph - N/A   Clear
11:35 PM 73.4 °F - 73.4 °F 100% 30.03 in 10.0 mi Calm Calm - N/A   Clear
11:55 PM 73.4 °F - 73.4 °F 100% 30.02 in 10.0 mi Calm Calm - N/A   Clear